Weather Roundup
Issued by NWS Corpus Christi, TX

Home | Current Version | Previous Version | Text Only | Print | Product List | Glossary On
Versions: 1 2 3 4 5 6 7 8 9 10 11 12 13 14 15 16 17 18 19 20 21 22 23 24 25 26 27 28 29 30 31 32 33 34 35 36 37 38 39 40 41 42 43 44 45 46 47 48 49 50
000
ASUS44 KCRP 290010
HRRCRP

SOUTH TEXAS REGIONAL WEATHER ROUNDUP
NATIONAL WEATHER SERVICE CORPUS CHRISTI TX
600 PM CST WED JAN 28 2015


TXZ229>244-290100-
...CORPUS CHRISTI AREA OBSERVATIONS...

CITY           SKY/WX    TMP DP  RH WIND       PRES   REMARKS
CORPUS CHRISTI MOCLDY    67  59  75 SE16      30.11S
NAS CORPUS CHR MOCLDY    65  61  87 S17       30.12S
ROCKPORT       CLEAR     65  61  87 S7        30.12S
KINGSVILLE NAS MOCLDY    69  61  75 SE13      30.10S
ALICE          PTCLDY    72  60  66 SE12G29   30.08S
FALFURRIAS     MOCLDY    75  49  39 SE9       30.09S
$$

...VICTORIA AREA OBSERVATIONS...

CITY           SKY/WX    TMP DP  RH WIND       PRES   REMARKS
VICTORIA         N/A     68  60  75 S12       30.12S
BEEVILLE       FAIR      72  55  56 SE10      30.09F
PLEASANTON     CLEAR     75  38  26 SE8       30.08S
SAN ANTONIO    PTCLDY    72  40  31 SE10      30.08F
$$

...LAREDO AREA OBSERVATIONS...

CITY           SKY/WX    TMP DP  RH WIND       PRES   REMARKS
LAREDO         CLEAR     79  39  24 SE14      30.06F
COTULLA        CLEAR     81  34  18 S13       30.05R
DEL RIO        CLEAR     78  38  23 SE10      30.02R
MCALLEN        MOCLDY    71  52  50 SE14      30.11R
HEBBRONVILLE   PTCLDY    74  43  32 SE10      30.09F
$$

...OTHER TEXAS OBSERVATIONS...

CITY           SKY/WX    TMP DP  RH WIND       PRES   REMARKS
BROWNSVILLE    PTCLDY    69  61  75 SE14      30.13F
HOUSTON        PTCLDY    66  50  56 SE7       30.12R
COL. STATION   CLEAR     70  43  37 S9        30.09S
AUSTIN         PTCLDY    71  42  35 S9        30.06F
WACO           PTCLDY    70  41  34 S13       30.03S
FORT WORTH     MOCLDY    74  43  32 S17       29.96F
WICHITA FALLS  PTCLDY    75  45  34 SW14      29.91S
LUBBOCK        PTCLDY    68  33  27 W9        30.02R
EL PASO        MOCLDY    70  38  31 W6        30.11R
$$

...MARINE OBSERVATIONS...

STATION/POSITION TIME  SKY/WX   TEMP    WIND        PRES    VSBY  WAVE   SWELL
                                AIR SEA DIR/SP/G                  HT/PER HT/PER
                 (UTC)          (F)     (DEG/KT/KT) (MB)    (MI)  (FT/S) (FT/S)
PORT ARANSAS     0000            63 61  140/ 12/ 13 1020.6F
BUOY 90 E PORT A 0000            69 69  150/ 12/ 14 1020.9F         1/ 4
BUOY 45 SE BAFFI 0000            68 70  170/ 14/ 17 1019.8F         1/ 3
BUOY 200 E PT IS 0000            70 74  100/  6/  6 1021.9F         1/ 4
BUOY 15 E GALVES 0000            60 58  150/  8/ 10 1020.4F         1
$$


USA.gov is the U.S. government's official web portal to all federal, state and local government web resources and services.